�������l�o���
Date,Time,MP-1(��Sv/h),MP-2(��Sv/h),MP-3(��Sv/h),MP-4(��Sv/h),MP-5(��Sv/h),MP-6(��Sv/h),MP-7(��Sv/h),����,����(m/s),���J
2017/10/31,00:00,0.322,0.206,0.336,0.319,0.309,0.165,0.099,��,0.8,��
2017/10/31,00:10,0.322,0.207,0.338,0.316,0.306,0.167,0.099,���쐼,1.0,��
2017/10/31,00:20,0.322,0.206,0.335,0.318,0.309,0.166,0.099,��,0.9,��
2017/10/31,00:30,0.322,0.207,0.337,0.316,0.307,0.165,0.099,���k��,0.9,��
2017/10/31,00:40,0.321,0.206,0.336,0.318,0.307,0.166,0.099,��,0.9,��
2017/10/31,00:50,0.322,0.208,0.336,0.316,0.308,0.165,0.098,���쐼,1.0,��
2017/10/31,01:00,0.323,0.206,0.335,0.316,0.308,0.165,0.099,��,2.2,��
2017/10/31,01:10,0.324,0.207,0.335,0.318,0.308,0.165,0.099,�쐼,3.2,��
2017/10/31,01:20,0.322,0.206,0.338,0.319,0.308,0.165,0.099,���쐼,1.8,��
2017/10/31,01:30,0.321,0.207,0.336,0.317,0.308,0.166,0.098,�쐼,2.3,��
2017/10/31,01:40,0.323,0.206,0.336,0.317,0.308,0.165,0.098,��,2.2,��
2017/10/31,01:50,0.323,0.207,0.336,0.317,0.308,0.165,0.099,��,5.1,��
2017/10/31,02:00,0.321,0.206,0.336,0.319,0.308,0.166,0.099,���k��,6.4,��
2017/10/31,02:10,0.323,0.207,0.337,0.317,0.309,0.166,0.098,���k��,6.2,��
2017/10/31,02:20,0.321,0.207,0.335,0.317,0.308,0.166,0.099,�k��,4.8,��
2017/10/31,02:30,0.320,0.207,0.337,0.318,0.308,0.165,0.099,�k��,3.8,��
2017/10/31,02:40,0.321,0.206,0.335,0.319,0.309,0.166,0.099,���k��,2.9,��
2017/10/31,02:50,0.323,0.207,0.334,0.318,0.307,0.166,0.098,���k��,2.9,��
2017/10/31,03:00,0.322,0.207,0.337,0.317,0.309,0.166,0.098,���k��,2.2,��
2017/10/31,03:10,0.321,0.207,0.336,0.317,0.308,0.166,0.099,�k��,1.6,��
2017/10/31,03:20,0.322,0.206,0.335,0.319,0.309,0.165,0.098,�k�k��,0.9,��
2017/10/31,03:30,0.322,0.206,0.336,0.318,0.307,0.166,0.100,-,CALM,��
2017/10/31,03:40,0.321,0.206,0.338,0.317,0.308,0.165,0.099,��,0.7,��
2017/10/31,03:50,0.323,0.207,0.336,0.318,0.309,0.165,0.099,���쓌,2.1,��
2017/10/31,04:00,0.321,0.207,0.335,0.317,0.308,0.166,0.099,��쓌,2.0,��
2017/10/31,04:10,0.322,0.207,0.336,0.318,0.307,0.165,0.099,��쓌,1.8,��
2017/10/31,04:20,0.321,0.206,0.337,0.318,0.308,0.165,0.098,��,1.8,��
2017/10/31,04:30,0.321,0.207,0.335,0.318,0.308,0.166,0.098,��,1.3,��
2017/10/31,04:40,0.323,0.207,0.335,0.319,0.307,0.166,0.099,��,1.5,��
2017/10/31,04:50,0.322,0.207,0.336,0.315,0.306,0.166,0.099,�쐼,1.1,��
2017/10/31,05:00,0.321,0.207,0.336,0.317,0.308,0.166,0.099,��쐼,1.1,��
2017/10/31,05:10,0.323,0.207,0.335,0.318,0.309,0.166,0.099,�쐼,1.1,��
2017/10/31,05:20,0.322,0.206,0.336,0.318,0.308,0.166,0.099,���k��,1.5,��
2017/10/31,05:30,0.322,0.207,0.336,0.317,0.307,0.166,0.100,���k��,1.9,��
2017/10/31,05:40,0.323,0.207,0.336,0.318,0.308,0.166,0.099,���k��,1.9,��
2017/10/31,05:50,0.323,0.207,0.335,0.318,0.309,0.166,0.099,�k��,2.1,��
2017/10/31,06:00,0.321,0.206,0.337,0.319,0.308,0.165,0.100,���k��,2.3,��
2017/10/31,06:10,0.322,0.207,0.336,0.318,0.307,0.166,0.099,���k��,3.0,��
2017/10/31,06:20,0.322,0.207,0.335,0.318,0.309,0.166,0.099,�k��,2.9,��
2017/10/31,06:30,0.323,0.206,0.336,0.318,0.308,0.166,0.100,�k�k��,2.4,��
2017/10/31,06:40,0.322,0.206,0.337,0.318,0.308,0.166,0.099,�k�k��,2.5,��
2017/10/31,06:50,0.321,0.206,0.337,0.316,0.308,0.165,0.099,-,CALM,��
2017/10/31,07:00,0.321,0.206,0.337,0.318,0.308,0.165,0.098,��,0.7,��
2017/10/31,07:10,0.322,0.206,0.336,0.318,0.307,0.166,0.098,��쐼,1.2,��
2017/10/31,07:20,0.320,0.206,0.336,0.316,0.309,0.165,0.099,��,1.4,��
2017/10/31,07:30,0.321,0.207,0.338,0.318,0.309,0.166,0.098,��,1.3,��
2017/10/31,07:40,0.323,0.205,0.335,0.318,0.307,0.166,0.099,��,1.9,��
2017/10/31,07:50,0.320,0.207,0.335,0.316,0.309,0.166,0.099,��,3.0,��
2017/10/31,08:00,0.321,0.206,0.336,0.318,0.308,0.165,0.099,��쓌,1.9,��
2017/10/31,08:10,0.323,0.207,0.336,0.315,0.308,0.165,0.098,��,2.4,��
2017/10/31,08:20,0.321,0.206,0.337,0.317,0.308,0.166,0.099,��,2.3,��
2017/10/31,08:30,0.322,0.205,0.336,0.318,0.307,0.165,0.098,��쐼,2.4,��
2017/10/31,08:40,0.321,0.207,0.335,0.316,0.311,0.165,0.100,���쐼,3.1,��
2017/10/31,08:50,0.321,0.205,0.335,0.318,0.306,0.165,0.098,��,3.4,��
2017/10/31,09:00,0.322,0.206,0.337,0.318,0.309,0.165,0.099,��,4.5,��
2017/10/31,09:10,0.319,0.206,0.335,0.317,0.308,0.164,0.098,��,3.6,��
2017/10/31,09:20,0.322,0.207,0.335,0.317,0.308,0.166,0.099,��,3.0,��
2017/10/31,09:30,0.318,0.205,0.336,0.314,0.307,0.165,0.098,���k��,2.9,��
2017/10/31,09:40,0.321,0.207,0.334,0.316,0.309,0.167,0.098,���k��,2.7,��
2017/10/31,09:50,0.319,0.204,0.337,0.314,0.306,0.164,0.098,���k��,3.0,��
2017/10/31,10:00,0.318,0.207,0.333,0.316,0.308,0.165,0.098,���k��,4.0,��
2017/10/31,10:10,0.322,0.205,0.336,0.320,0.305,0.165,0.098,���k��,4.3,��
2017/10/31,10:20,0.317,0.208,0.337,0.315,0.309,0.166,0.099,��,5.9,��
2017/10/31,10:30,0.321,0.205,0.335,0.318,0.309,0.166,0.097,��,4.3,��
2017/10/31,10:40,0.319,0.207,0.337,0.317,0.307,0.166,0.099,��,5.1,��
2017/10/31,10:50,0.320,0.205,0.335,0.315,0.308,0.166,0.099,��,5.4,��
2017/10/31,11:00,0.320,0.206,0.337,0.317,0.306,0.165,0.098,���k��,3.5,��
2017/10/31,11:10,0.318,0.207,0.335,0.320,0.309,0.166,0.099,�k��,4.8,��
2017/10/31,11:20,0.322,0.206,0.336,0.315,0.308,0.166,0.098,���k��,5.1,��
2017/10/31,11:30,0.321,0.207,0.335,0.315,0.303,0.167,0.097,���k��,7.5,��
2017/10/31,11:40,0.321,0.206,0.337,0.320,0.310,0.165,0.099,���k��,6.5,��
2017/10/31,11:50,0.323,0.206,0.335,0.319,0.309,0.166,0.098,���k��,6.8,��
2017/10/31,12:00,0.320,0.207,0.336,0.315,0.307,0.166,0.099,���k��,4.9,��
2017/10/31,12:10,0.323,0.206,0.333,0.318,0.310,0.166,0.099,�k��,4.9,��
2017/10/31,12:20,0.320,0.207,0.337,0.319,0.306,0.167,0.098,���k��,6.0,��
2017/10/31,12:30,0.322,0.207,0.334,0.315,0.306,0.166,0.099,���k��,8.1,��
2017/10/31,12:40,0.321,0.205,0.332,0.314,0.308,0.167,0.098,��,7.7,��
2017/10/31,12:50,0.321,0.208,0.336,0.318,0.307,0.167,0.099,���k��,7.1,��
2017/10/31,13:00,0.322,0.205,0.336,0.319,0.307,0.165,0.099,���k��,7.1,��
2017/10/31,13:10,0.321,0.207,0.335,0.316,0.309,0.167,0.099,���k��,6.2,��
2017/10/31,13:20,0.323,0.205,0.338,0.316,0.306,0.166,0.098,�k��,7.3,��
2017/10/31,13:30,0.321,0.208,0.334,0.319,0.310,0.168,0.099,�k��,6.8,��
2017/10/31,13:40,0.322,0.205,0.337,0.318,0.310,0.166,0.099,���k��,10.9,��
2017/10/31,13:50,0.322,0.207,0.336,0.317,0.309,0.167,0.099,���k��,7.8,��
2017/10/31,14:00,0.323,0.207,0.337,0.320,0.311,0.168,0.099,���k��,6.4,��
2017/10/31,14:10,0.323,0.207,0.337,0.318,0.308,0.166,0.099,���k��,6.7,��
2017/10/31,14:20,0.322,0.206,0.339,0.322,0.309,0.167,0.099,���k��,4.0,��
2017/10/31,14:30,0.324,0.207,0.337,0.319,0.310,0.165,0.099,�k��,3.3,��
2017/10/31,14:40,0.322,0.206,0.340,0.322,0.312,0.166,0.098,��,4.9,��
2017/10/31,14:50,0.323,0.207,0.337,0.319,0.308,0.167,0.099,��,3.2,��
2017/10/31,15:00,0.322,0.207,0.338,0.321,0.310,0.167,0.098,���k��,2.5,��
2017/10/31,15:10,0.324,0.209,0.337,0.319,0.311,0.167,0.099,��,3.5,��
2017/10/31,15:20,0.322,0.207,0.336,0.319,0.311,0.167,0.100,��,4.1,��
2017/10/31,15:30,0.323,0.208,0.338,0.321,0.309,0.166,0.100,��,2.3,��
2017/10/31,15:40,0.321,0.207,0.337,0.320,0.311,0.167,0.098,��,5.5,��
2017/10/31,15:50,0.322,0.208,0.339,0.320,0.311,0.167,0.100,��,5.0,��
2017/10/31,16:00,0.323,0.209,0.335,0.319,0.310,0.166,0.099,��,6.2,��
2017/10/31,16:10,0.322,0.207,0.338,0.322,0.311,0.166,0.099,��,5.9,��
2017/10/31,16:20,0.324,0.207,0.338,0.320,0.309,0.167,0.099,��,5.4,��
2017/10/31,16:30,0.321,0.207,0.336,0.320,0.311,0.166,0.100,��,5.7,��
2017/10/31,16:40,0.323,0.207,0.338,0.321,0.309,0.167,0.099,��,5.1,��
2017/10/31,16:50,0.321,0.208,0.338,0.319,0.310,0.167,0.099,��,4.9,��
2017/10/31,17:00,0.322,0.208,0.337,0.320,0.311,0.167,0.099,��,5.9,��
2017/10/31,17:10,0.323,0.208,0.338,0.320,0.309,0.168,0.099,��,5.1,��
2017/10/31,17:20,0.322,0.207,0.338,0.320,0.311,0.167,0.100,��,4.1,��
2017/10/31,17:30,0.323,0.208,0.339,0.322,0.309,0.169,0.099,��,5.4,��
2017/10/31,17:40,0.323,0.207,0.338,0.321,0.310,0.168,0.099,��,5.9,��
2017/10/31,17:50,0.322,0.208,0.336,0.320,0.310,0.167,0.100,��,4.4,��
2017/10/31,18:00,0.323,0.207,0.340,0.321,0.310,0.168,0.099,���쐼,5.2,��
2017/10/31,18:10,0.321,0.206,0.337,0.319,0.309,0.167,0.099,��,5.7,��
2017/10/31,18:20,0.321,0.208,0.337,0.320,0.310,0.168,0.099,���쐼,5.3,��
2017/10/31,18:30,0.323,0.207,0.337,0.320,0.308,0.169,0.100,���쐼,4.9,��
2017/10/31,18:40,0.322,0.207,0.336,0.320,0.309,0.167,0.099,���쐼,2.3,��
2017/10/31,18:50,0.322,0.207,0.338,0.320,0.309,0.167,0.099,���쐼,4.2,��
2017/10/31,19:00,0.322,0.208,0.339,0.322,0.308,0.168,0.099,��,3.4,��
2017/10/31,19:10,0.321,0.207,0.337,0.319,0.310,0.167,0.100,��,5.7,��
2017/10/31,19:20,0.323,0.208,0.338,0.321,0.309,0.167,0.099,��,6.2,��
2017/10/31,19:30,0.323,0.208,0.339,0.320,0.308,0.168,0.099,��,5.0,��
2017/10/31,19:40,0.322,0.207,0.337,0.319,0.311,0.168,0.099,��,5.2,��
2017/10/31,19:50,0.322,0.207,0.338,0.321,0.309,0.167,0.099,��,5.5,��
2017/10/31,20:00,0.322,0.208,0.340,0.321,0.309,0.167,0.099,��,6.8,��
2017/10/31,20:10,0.322,0.207,0.338,0.320,0.309,0.168,0.099,��,4.9,��
2017/10/31,20:20,0.323,0.207,0.338,0.321,0.309,0.168,0.100,���k��,3.4,��
2017/10/31,20:30,0.321,0.209,0.339,0.322,0.309,0.167,0.100,���k��,3.7,��
2017/10/31,20:40,0.322,0.207,0.337,0.319,0.310,0.168,0.099,��,4.8,��
2017/10/31,20:50,0.323,0.207,0.338,0.320,0.309,0.167,0.100,��,4.2,��
2017/10/31,21:00,0.322,0.207,0.339,0.321,0.308,0.166,0.099,��,5.7,��
2017/10/31,21:10,0.321,0.208,0.337,0.320,0.309,0.167,0.099,���k��,7.3,��
2017/10/31,21:20,0.323,0.209,0.339,0.320,0.311,0.167,0.100,���k��,9.0,��
2017/10/31,21:30,0.322,0.207,0.339,0.320,0.309,0.166,0.100,���k��,7.1,��
2017/10/31,21:40,0.322,0.208,0.337,0.321,0.309,0.167,0.098,��,7.1,��
2017/10/31,21:50,0.324,0.208,0.337,0.320,0.308,0.167,0.099,��,5.7,��
2017/10/31,22:00,0.321,0.207,0.339,0.320,0.308,0.168,0.098,��,7.3,��
2017/10/31,22:10,0.322,0.207,0.337,0.321,0.310,0.168,0.100,���k��,7.5,��
2017/10/31,22:20,0.322,0.208,0.339,0.320,0.309,0.166,0.100,���k��,7.5,��
2017/10/31,22:30,0.321,0.207,0.339,0.320,0.309,0.167,0.100,���k��,5.7,��
2017/10/31,22:40,0.321,0.208,0.336,0.321,0.309,0.167,0.098,���k��,5.9,��
2017/10/31,22:50,0.324,0.207,0.337,0.319,0.309,0.168,0.100,��,3.5,��
2017/10/31,23:00,0.321,0.208,0.338,0.320,0.308,0.167,0.099,���k��,5.9,��
2017/10/31,23:10,0.322,0.208,0.338,0.320,0.309,0.167,0.100,���k��,5.4,��
2017/10/31,23:20,0.322,0.207,0.339,0.319,0.309,0.167,0.100,��,4.8,��
2017/10/31,23:30,0.323,0.208,0.339,0.321,0.310,0.168,0.099,���k��,3.9,��
2017/10/31,23:40,0.323,0.207,0.337,0.321,0.310,0.167,0.099,���k��,4.4,��
2017/10/31,23:50,0.323,0.207,0.339,0.320,0.308,0.168,0.098,���k��,3.9,��
